Overview Statistics Trail Chart Weather Telemetry Raw packets
 

This is the latest recevied weather packets stored in our database for station/object NR0A-4. If no packets are shown the sender has not sent any weather packets the latest 10 day(s).

<< 26 27 28 29 30 31 32 >>
Time Temp. Humidity Pressure Rain* Wind** Luminosity Snow
1788475804 32.78° C 57% 1007.9 hPa 0 mm - 301 W/m² -
1788475504 32.78° C 56% 1007.8 hPa 0 mm - 315 W/m² -
1788475204 33.33° C 55% 1007.8 hPa 0 mm - 350 W/m² -
1788474904 33.33° C 55% 1007.7 hPa 0 mm - 350 W/m² -
1788474605 33.33° C 55% 1007.7 hPa 0 mm - 360 W/m² -
1788474304 33.33° C 55% 1007.7 hPa 0 mm - 374 W/m² -
1788474004 33.33° C 54% 1007.7 hPa 0 mm - 390 W/m² -
1788473704 33.33° C 55% 1007.7 hPa 0 mm - 404 W/m² -
1788473426 33.33° C 55% 1007.8 hPa 0 mm - 417 W/m² -
1788473104 33.33° C 55% 1007.7 hPa 0 mm - 431 W/m² -
1788472803 33.33° C 55% 1007.7 hPa 0 mm - 462 W/m² -
1788472504 33.33° C 54% 1007.9 hPa 0 mm - 462 W/m² -
1788472204 33.33° C 55% 1007.9 hPa 0 mm - 469 W/m² -
1788471904 33.33° C 54% 1008 hPa 0 mm - 482 W/m² -
1788471604 33.33° C 56% 1007.9 hPa 0 mm - 487 W/m² -
1788471304 33.33° C 55% 1007.9 hPa 0 mm - 506 W/m² -
1788471004 33.33° C 53% 1008 hPa 0 mm - 515 W/m² -
1788470703 33.33° C 54% 1008 hPa 0 mm - 527 W/m² -
1788470404 33.33° C 53% 1007.9 hPa 0 mm - 540 W/m² -
1788470104 33.33° C 57% 1007.9 hPa 0 mm - 550 W/m² -
1788469804 32.78° C 55% 1008 hPa 0 mm - 557 W/m² -
1788469505 33.33° C 55% 1008 hPa 0 mm - 571 W/m² -
1788469204 33.33° C 54% 1008.1 hPa 0 mm - 584 W/m² -
1788468903 33.33° C 55% 1008.1 hPa 0 mm - 592 W/m² -
1788468604 32.78° C 54% 1008 hPa 0 mm - 606 W/m² -

* Rain latest hour (hover to see other rain measurements)
** Current wind speed in m/s (hover to see current wind gust speed)